Flag for U.S.A. Weather past 2 weeks in Pensacola, Florida, U.S.A.

Now
69 °F

Clear.


Feels Like: 69 °F
Forecast: 69 / 86 °F
Wind: 8 mph from Northeast

Location: Pensacola Regional Airport

Current Time: Sep 20, 2014 at 5:22:39 AM

Latest Report: Sep 20, 2014 at 4:53 AM


Visibility: 10 mi

Pressure: 29.96 "Hg

Humidity: 90%

Dew point: 66 °F

Location of PensacolaLocation

Historic Weather in Pensacola — Graph

°F

Pensacola temperature yesterday

Maximum temperature yesterday: 82 °F (at 12:53 PM)
Minimum temperature yesterday: 72 °F (at 4:53 AM)
Average temperature yesterday: 76 °F

Past Weeks' High & Low Weather Summary

 TemperatureHumidityPressure
High90 °F (Sep 6, 1:53 PM)100% (Sep 5, 4:53 AM)30.15 "Hg (Sep 5, 4:53 AM)
Low69 °F (Sep 17, 6:53 AM)50% (Sep 6, 12:53 PM)29.88 "Hg (Sep 17, 5:53 PM)
Average78 °F85%30.00 "Hg
* Reported Sep 5 3:53 AM — Sep 20 3:53 AM, Pensacola, Weather by CustomWeather, © 2014

Note: Actual official high and low records may vary slightly from our data, if they occured in-between our weather recording intervals... More about our weather records

Advertising

Pensacola weather history for previous 24 hours

 ConditionsComfort  
Time TempWeatherWind HumidityBarometerVisibility
3:53 AM
Sep 20
69 °FClear.7 mph90%29.96 "Hg10 mi
2:53 AM70 °FClear.5 mph90%29.96 "Hg10 mi
1:53 AM71 °FClear.6 mph87%29.96 "Hg10 mi
12:53 AM72 °FClear.6 mph87%29.97 "Hg10 mi
11:53 PM
Sep 19
73 °FClear.6 mph84%29.99 "Hg10 mi
10:53 PM74 °FClear.5 mph85%30.00 "Hg10 mi
9:53 PM77 °FClear.9 mph74%29.99 "Hg10 mi
8:53 PM76 °FClear.9 mph77%29.98 "Hg10 mi
7:53 PM78 °FPassing clouds.13 mph74%29.96 "Hg10 mi
6:53 PM77 °FClear.5 mph74%29.96 "Hg10 mi
5:53 PM80 °FSunny.8 mph64%29.95 "Hg10 mi
4:53 PM81 °FSunny.8 mph62%29.94 "Hg10 mi
3:53 PM81 °FSunny.8 mph67%29.94 "Hg10 mi
2:53 PM81 °FPassing clouds.10 mph72%29.95 "Hg10 mi
1:53 PM80 °FPassing clouds.14 mph74%29.97 "Hg10 mi
12:53 PM82 °FScattered clouds.8 mph70%29.98 "Hg10 mi
11:53 AM80 °FSunny.3 mph71%29.99 "Hg10 mi
10:53 AM76 °FSunny.6 mph85%30.00 "Hg10 mi
9:53 AM74 °FSunny.5 mph94%29.98 "Hg10 mi
9:00 AM72 °FLight rain. Mostly cloudy.No wind97%29.97 "Hg10 mi
7:53 AM72 °FHeavy rain. Fog.5 mph97%29.96 "Hg6 mi
6:53 AM72 °FPartly sunny.No wind97%29.95 "Hg10 mi
5:53 AM73 °FPartly cloudy.6 mph88%29.93 "Hg10 mi
Weather by CustomWeather, © 2014

See weather overviewHow to use our weather pages